Location: Dal�� Lhota
(48.7500°N, 14.0167°E)
Time: 23:04:21
(UTC+00:00)

PSLV R/B - Pass Details

Date: 24 September 2020
Orbit: 568 x 597 km, 98.2° (Epoch: 25 October)

Event Time Altitude Azimuth Distance (km) Brightness Sun altitude
Rises 17:18:13 0° 14° (NNE) 2,836 7.3 -4.3°
Reaches altitude 10° 17:20:23 10° 15° (NNE) 1,934 6.5 -4.7°
Maximum altitude 17:24:35 86° 104° (ESE) 603 4.0 -5.4°
Drops below altitude 10° 17:28:47 10° 194° (SSW) 1,930 6.7 -6.1°
Sets 17:30:57 0° 195° (SSW) 2,829 7.6 -6.4°
